DW5988 Weather Reports


time (UTC)temp
C
wind
direction
speed
KPH
gust
KPH
rain 1hr
cm
rain 24hr
cm
rain mn
cm
humidity
%
barometer
mb
20260906224755 17 73 9.7 19.3 0.00 0.03 0.03 72 1016.1
20260906224255 17 62 9.7 20.9 0.00 0.03 0.03 73 1016.0
20260906223755 17 55 11.3 19.3 0.00 0.03 0.03 72 1016.0
20260906222755 17 54 3.2 9.7 0.00 0.03 0.03 74 1016.0
20260906221755 17 68 9.7 16.1 0.00 0.03 0.03 75 1015.9
20260906221255 17 42 3.2 11.3 0.00 0.03 0.03 75 1015.8
20260906220254 17 61 4.8 16.1 0.00 0.03 0.03 75 1015.8
20260906214254 16 60 4.8 19.3 0.00 0.03 0.03 80 1016.1
20260906212255 15 61 11.3 19.3 0.00 0.03 0.03 81 1016.3
20260906210255 15 68 11.3 19.3 0.00 0.03 0.03 83 1016.5
20260906205754 15 60 8.0 19.3 0.00 0.03 0.03 84 1016.2
20260906202755 15 71 4.8 19.3 0.00 0.03 0.03 87 1016.6
20260906201754 14 103 4.8 4.8 0.00 0.03 0.03 88 1017.0
20260906201254 14 103 3.2 11.3 0.00 0.03 0.03 88 1017.1
20260906195755 13 103 4.8 9.7 0.03 0.03 0.03 89 1017.1
20260906195255 13 103 4.8 11.3 0.03 0.03 0.03 89 1017.2
20260906192755 14 100 8.0 11.3 0.03 0.03 0.03 88 1017.4
20260906191755 14 101 3.2 11.3 0.03 0.03 0.03 91 1017.4
20260906191255 13 105 4.8 11.3 0.03 0.03 0.03 90 1017.4
20260906190755 13 105 8.0 11.3 0.03 0.03 0.03 89 1017.5
20260906184255 13 111 4.8 9.7 0.00 0.00 0.00 86 1017.8
20260906183255 14 117 8.0 11.3 0.00 0.00 0.00 84 1018.0
20260906182756 14 117 4.8 11.3 0.00 0.00 0.00 83 1018.1
20260906182255 14 118 8.0 12.9 0.00 0.00 0.00 82 1018.1
20260906181255 14 119 9.7 12.9 0.00 0.00 0.00 81 1018.4
20260906180756 14 121 8.0 12.9 0.00 0.00 0.00 82 1018.4
20260906175755 14 122 8.0 12.9 0.00 0.00 0.00 82 1018.3
20260906174756 14 123 8.0 12.9 0.00 0.00 0.00 83 1018.4
20260906173255 13 128 4.8 11.3 0.00 0.00 0.00 86 1018.5
20260906171255 13 128 6.4 12.9 0.00 0.00 0.00 89 1018.8
20260906170254 13 127 4.8 11.3 0.00 0.00 0.00 89 1019.0
20260906165755 13 127 6.4 11.3 0.00 0.00 0.00 90 1019.1
20260906163755 12 113 3.2 11.3 0.00 0.00 0.00 92 1018.9
20260906163254 12 113 4.8 9.7 0.00 0.00 0.00 93 1019.2
20260906162756 12 113 3.2 11.3 0.00 0.00 0.00 93 1019.3
20260906161254 12 113 6.4 11.3 0.00 0.00 0.00 94 1019.2
20260906155754 12 105 6.4 11.3 0.00 0.00 0.00 95 1019.0
20260906153255 12 97 4.8 12.9 0.00 0.00 0.00 96 1018.9
20260906152755 12 95 3.2 9.7 0.00 0.00 0.00 95 1019.0
20260906151756 12 80 4.8 16.1 0.00 0.00 0.00 96 1018.8
20260906151255 12 73 8.0 20.9 0.00 0.00 0.00 96 1018.8
20260906150256 12 81 4.8 24.1 0.00 0.00 0.00 96 1018.8
20260906145257 11 72 8.0 16.1 0.00 0.00 0.00 96 1018.6
20260906144255 11 78 4.8 12.9 0.00 0.00 0.00 96 1018.7
20260906143255 11 78 3.2 12.9 0.00 0.00 0.00 96 1018.7
20260906142756 11 79 4.8 11.3 0.00 0.00 0.00 96 1018.8
20260906142255 11 76 3.2 8.0 0.00 0.00 0.00 96 1018.9
20260906141755 11 74 4.8 12.9 0.00 0.00 0.00 96 1018.9
20260906140755 11 75 4.8 12.9 0.00 0.00 0.00 96 1019.1
20260906135755 11 77 4.8 11.3 0.00 0.00 0.00 96 1019.2
20260906135255 11 73 8.0 14.5 0.00 0.00 0.00 96 1019.2
20260906134255 11 80 1.6 8.0 0.00 0.00 0.00 96 1019.3
20260906133755 11 80 3.2 4.8 0.00 0.00 0.00 96 1019.3
20260906133255 11 80 1.6 4.8 0.00 0.00 0.00 96 1019.2
20260906125255 11 84 4.8 4.8 0.00 0.00 0.00 96 1018.7
20260906124756 11 84 3.2 4.8 0.00 0.00 0.00 96 1018.7
20260906123255 11 84 0.0 0.0 0.00 0.00 0.00 96 1018.9
20260906122756 11 84 0.0 0.0 0.00 0.00 0.00 96 1019.1
20260906122254 11 84 0.0 0.0 0.00 0.00 0.00 96 1019.3
20260906121255 11 84 0.0 1.6 0.00 0.00 0.00 96 1019.4
20260906120756 11 84 0.0 4.8 0.00 0.00 0.00 96 1019.4
20260906120255 11 84 1.6 4.8 0.00 0.00 0.00 96 1019.5
20260906115255 11 84 1.6 4.8 0.00 0.00 0.00 96 1019.8
20260906114755 11 84 3.2 4.8 0.00 0.00 0.00 96 1019.8
20260906114255 11 84 3.2 4.8 0.00 0.00 0.00 96 1019.8
20260906113256 11 80 3.2 4.8 0.00 0.00 0.00 96 1019.7
20260906112756 11 73 3.2 4.8 0.00 0.00 0.00 96 1019.6
20260906112256 11 71 3.2 4.8 0.00 0.00 0.00 96 1019.4
20260906111255 11 71 6.4 12.9 0.00 0.00 0.00 96 1019.3
20260906110755 11 68 4.8 16.1 0.00 0.00 0.00 96 1019.4
20260906110255 11 49 3.2 4.8 0.00 0.00 0.00 96 1019.6
20260906105755 11 49 3.2 8.0 0.00 0.00 0.00 96 1019.9
20260906105255 11 49 1.6 4.8 0.00 0.00 0.00 96 1019.9
20260906102255 11 48 6.4 8.0 0.00 0.00 0.00 96 1020.0
20260906101755 11 48 3.2 4.8 0.00 0.00 0.00 96 1020.2
20260906100755 11 48 3.2 4.8 0.00 0.00 0.00 96 1020.1
20260906095757 11 48 3.2 4.8 0.00 0.00 0.00 96 1020.3
20260906094255 11 48 0.0 0.0 0.00 0.00 0.00 96 1020.6
20260906092755 11 48 1.6 3.2 0.00 0.00 0.00 96 1020.6
20260906091755 11 48 1.6 3.2 0.00 0.00 0.00 96 1020.6
20260906091255 11 48 0.0 0.0 0.00 0.00 0.00 95 1020.5
20260906085756 11 48 0.0 0.0 0.00 0.00 0.00 95 1020.9
20260906085256 11 48 0.0 0.0 0.00 0.00 0.00 95 1020.9
20260906084756 11 48 0.0 0.0 0.00 0.00 0.00 95 1020.9
20260906083755 11 48 0.0 0.0 0.00 0.00 0.00 95 1020.9
20260906082756 11 48 0.0 0.0 0.00 0.00 0.00 95 1020.9
20260906082255 11 48 0.0 0.0 0.00 0.00 0.00 95 1021.0
20260906081755 11 48 0.0 0.0 0.00 0.00 0.00 95 1021.0
20260906074255 11 48 1.6 3.2 0.00 0.00 0.00 95 1021.1
20260906072756 11 48 0.0 0.0 0.00 0.00 0.00 95 1021.3
20260906071756 11 48 0.0 0.0 0.00 0.00 0.00 95 1021.2
20260906071255 11 48 0.0 3.2 0.00 0.00 0.00 95 1021.1
20260906064256 11 48 3.2 4.8 0.00 0.00 0.00 95 1021.0
20260906063756 11 48 3.2 4.8 0.00 0.00 0.00 95 1021.1
20260906061756 11 48 3.2 4.8 0.00 0.00 0.00 95 1021.2
20260906061256 11 48 3.2 4.8 0.00 0.00 0.00 95 1021.1
20260906060830 11 48 1.6 4.8 0.00 0.00 0.00 95 1021.0
20260906055756 11 48 1.6 4.8 0.00 0.00 0.00 95 1021.0
20260906055256 11 48 1.6 4.8 0.00 0.00 0.00 94 1021.0
20260906054756 11 48 1.6 4.8 0.00 0.00 0.00 94 1021.0
20260906054256 11 48 3.2 4.8 0.00 0.00 0.00 94 1020.9
20260906053755 11 48 3.2 4.8 0.00 0.00 0.00 94 1021.0
20260906053256 11 48 3.2 4.8 0.00 0.00 0.00 94 1021.0
20260906052756 11 48 1.6 4.8 0.00 0.00 0.00 94 1021.1
20260906045255 11 48 3.2 4.8 0.00 0.00 0.00 94 1020.8
20260906044756 11 48 3.2 4.8 0.00 0.00 0.00 94 1020.9
20260906043755 11 48 3.2 4.8 0.00 0.00 0.00 94 1021.1
20260906043256 11 48 4.8 8.0 0.00 0.00 0.00 94 1021.1
20260906042756 11 49 8.0 11.3 0.00 0.00 0.00 94 1021.0
20260906042256 11 53 6.4 14.5 0.00 0.00 0.00 94 1021.0
20260906041755 11 38 3.2 9.7 0.00 0.00 0.00 94 1020.9
20260906041256 11 38 3.2 4.8 0.00 0.00 0.00 94 1020.9
20260906035756 11 37 6.4 9.7 0.00 0.00 0.00 94 1020.9
20260906035255 11 37 4.8 9.7 0.00 0.00 0.00 94 1020.8
20260906034756 11 30 3.2 8.0 0.00 0.00 0.00 94 1020.7
20260906034255 11 5 4.8 8.0 0.00 0.00 0.00 94 1020.7
20260906033256 11 9 4.8 8.0 0.00 0.00 0.00 94 1020.7
20260906031255 11 9 4.8 4.8 0.00 0.00 0.00 93 1020.7
20260906030756 11 13 3.2 4.8 0.00 0.00 0.00 93 1020.7
20260906025256 11 346 3.2 4.8 0.00 0.00 0.00 93 1020.5
20260906024756 11 346 3.2 4.8 0.00 0.00 0.00 93 1020.5
20260906024255 11 346 3.2 4.8 0.00 0.00 0.00 93 1020.5
20260906023755 11 346 1.6 4.8 0.00 0.00 0.00 93 1020.4
20260906022255 11 349 4.8 4.8 0.00 0.00 0.00 93 1020.5
20260906021756 11 350 4.8 4.8 0.00 0.00 0.00 93 1020.5
20260906020756 11 16 3.2 4.8 0.00 0.00 0.00 92 1020.4
20260906014255 11 16 3.2 4.8 0.00 0.00 0.00 92 1020.5
20260906013755 11 16 3.2 4.8 0.00 0.00 0.00 92 1020.5
20260906013256 11 16 3.2 4.8 0.00 0.00 0.00 92 1020.5
20260906012756 11 16 3.2 4.8 0.00 0.00 0.00 91 1020.5
20260906011755 12 16 1.6 3.2 0.00 0.00 0.00 91 1020.4
20260906011255 12 16 1.6 3.2 0.00 0.00 0.00 91 1020.5
20260906005756 12 16 3.2 4.8 0.00 0.00 0.00 90 1020.3
20260906005255 12 16 3.2 8.0 0.00 0.00 0.00 90 1020.3
20260906004757 12 15 4.8 8.0 0.00 0.00 0.00 90 1020.3
20260906003256 12 14 4.8 11.3 0.00 0.00 0.00 89 1020.1
20260906002256 12 18 4.8 11.3 0.00 0.00 0.00 89 1020.0
20260906001755 12 5 4.8 11.3 0.00 0.00 0.00 89 1020.0
20260906001255 12 13 8.0 12.9 0.00 0.00 0.00 89 1019.9
20260906000757 12 32 4.8 9.7 0.00 0.00 0.00 89 1019.9
20260905235756 12 35 8.0 16.1 0.00 0.00 0.00 89 1019.8
20260905234255 12 20 6.4 11.3 0.00 0.00 0.00 89 1019.8
20260905233755 12 1 8.0 14.5 0.00 0.00 0.00 89 1019.7
20260905232756 12 13 6.4 14.5 0.00 0.00 0.00 88 1019.7
20260905231755 12 17 8.0 14.5 0.00 0.00 0.00 88 1019.7
20260905231255 12 34 8.0 14.5 0.00 0.00 0.00 88 1019.6
20260905230256 12 13 8.0 12.9 0.00 0.00 0.00 88 1019.6